Volver al catálogo

STARLINK-35012

ActivoComunicacionesSSO
NORAD 65384·PAYLOAD·🇺🇸 United States

Lanzado Aug 30, 2025 desde Vandenberg Space Force Base

Loading…

Próximos Pases (próximas 24 horas)

TLE

ActualizadoSource: CelesTrak SupGP

Época: Sep 15, 2026, 10:26 UTC

1 65384C 25191F   26258.43520833  .00039070  00000+0  12132-2 0  2582
2 65384  97.2840 124.6099 0001932  87.3905  60.8952 15.33409795    13

Sigue STARLINK-35012 en tiempo real con AllMySat

Download on the App Store